Location: ??????
(30.0081°N, 31.2109°E)
Time: 07:51:53
(UTC+00:00)

Cosmos 1503 Rocket - Pass Details

Date: 03 March 2021
Orbit: 753 x 790 km, 74.0° (Epoch: 15 April)

Event Time Altitude Azimuth Distance (km) Brightness Sun altitude
Rises 16:53:16 0° 354° (N) 3,213 7.3 -13.3°
Reaches altitude 10° 16:55:48 10° 2° (N) 2,282 6.4 -13.8°
Maximum altitude 17:00:35 37° 70° (ENE) 1,156 4.5 -14.9°
Enters shadow 17:04:03 17° 130° (SE) 1,838 5.5 -15.6°
